Weather in Pyatiizbyansky

Russia / Volgograd Oblast     48°35′20″N   43°27′12″E
temp.,
°C
wind,
m/s
gust,
m/s
humid.,
%
clouds,
%
prec.,
mm/h
press.,
hPa
HPBL,
m
1 august, sun
sun100:00+26nw11300 0.0 101011
03:00+25ene22320 0.0 101012
06:00+25ese23302 0.0 101169
09:00+32sw22211 0.0 1011761
12:00+35w32190 0.0 10112748
15:00+36wsw33173 0.0 10103168
18:00+35w431749 0.0 1009793
21:00+31nnw472991 0.0 1010133
2 august, mon
mon200:00+27n223911 0.0 101021
03:00+26e113523 0.0 101011
06:00+27s01355 0.0 101111
09:00+34se22213 0.0 1011646
12:00+36ssw23187 0.0 10103663
15:00+35w222221 0.8 10101363
18:00+35ene332231 0.2 1009819
21:00+28ese610382 0.2 1010197
3 august, tue
tue300:00+28se22352 0.0 100919
03:00+26se22410 0.0 101014
06:00+27sse23390 0.0 101074
09:00+34s452399 0.0 1010607
12:00+37ssw56204 0.0 10093033
15:00+38sw56152 0.0 10083428
18:00+37ssw46150 0.0 10072159
21:00+31nw342893 0.0 100876
4 august, wed
wed400:00+29nne3433100 0.0 100875
03:00+24nnw71157100 0.1 1010263
06:00+23n51067100 0.3 1011301
09:00+29nnw454768 0.3 1012715
12:00+32nnw55357 0.0 10131641
15:00+33nw55263 0.0 10122417
18:00+31nw54265 0.0 10131696
21:00+26n511375 0.0 1015363
5 august, thu
thu500:00+24nne511445 0.0 1015324
03:00+22nne4104897 0.0 1016249
06:00+22nne485018 0.0 1016249
09:00+28nne56350 0.0 10171679
12:00+31nne55240 0.0 10162472
15:00+32nne4421100 0.0 10152777
18:00+31ne44226 0.0 10142673
21:00+26e34300 0.0 101540